Date String (YYYY-MM-DD hh:mm:ss) UTC,Instrument flags,absolute air pressure of the measurement (hPa),sample flow rate (lpm),inlet stack bypass flow (lpm),air temperature of the measurement (°C),ambient temperature measured by the external sensor (°C),aerosol sample conditioner tube jacket temperature (°C),OPC LED temperature (°C),internal box temperature (°C),relative humidity of the measurement (%),span deviation,mass concentration of particles derived from Lorenz-Mie calculation of OPC scattering (μg/m³),mass concentration of particles derived from Lorenz-Mie calculation of OPC scattering (μg/m³),mass concentration of particles derived from Lorenz-Mie calculation of OPC scattering (μg/m³)
DateTimeUTC,F1_M11,P_M11,Q1_M11,Q2_M11,T1_M11,T2_M11,T3_M11,T4_M11,T5_M11,U1_M11,ZSPAN_M11,X2_M11,X0_M11,X1_M11
2024-03-30 03:00:00,SystemResetWarning,0825.8,5.00,000.00,020.6,019.9,000.0,029.2,022.5,27.7,0000.0,0003.84,0005.56,0003.49
2024-03-30 03:01:00,SystemResetWarning,0825.8,5.00,000.00,020.6,020.0,000.0,029.2,022.5,27.7,0000.0,0003.85,0005.63,0003.52
2024-03-30 03:02:00,SystemResetWarning,0825.8,5.00,000.00,020.6,019.9,000.0,029.2,022.4,27.7,0000.0,0003.88,0005.80,0003.54
2024-03-30 03:03:00,SystemResetWarning,0825.8,5.00,000.00,020.6,020.0,000.0,029.2,022.5,27.8,0000.0,0003.90,0005.84,0003.56
2024-03-30 03:04:00,SystemResetWarning,0825.8,5.00,000.00,020.6,020.0,000.0,029.2,022.5,27.7,0000.0,0003.88,0005.74,0003.57
2024-03-30 03:05:00,SystemResetWarning,0825.8,5.00,000.00,020.6,020.0,000.0,029.2,022.4,27.8,0000.0,0003.91,0005.85,0003.58
2024-03-30 03:06:00,SystemResetWarning,0825.8,5.00,000.00,020.6,020.0,000.0,029.2,022.5,27.9,0000.0,0003.92,0005.86,0003.58
2024-03-30 03:07:00,SystemResetWarning,0825.8,5.02,000.00,020.6,019.9,000.0,029.2,022.4,28.4,0000.0,0003.89,0005.86,0003.57
2024-03-30 03:08:00,SystemResetWarning,0825.8,5.00,000.00,020.6,019.9,000.0,029.2,022.5,28.2,0000.0,0003.86,0006.20,0003.56
2024-03-30 03:09:00,SystemResetWarning,0825.9,5.00,000.00,020.6,019.9,000.0,029.2,022.4,28.2,0000.0,0003.85,0006.19,0003.55
2024-03-30 03:10:00,SystemResetWarning,0825.9,5.00,000.00,020.6,019.9,000.0,029.2,022.4,28.1,0000.0,0003.85,0006.19,0003.55
2024-03-30 03:11:00,SystemResetWarning,0825.9,4.99,000.00,020.6,019.9,000.0,029.2,022.4,28.2,0000.0,0003.84,0006.18,0003.55
2024-03-30 03:12:00,SystemResetWarning,0825.9,5.00,000.00,020.6,020.0,000.0,029.2,022.5,28.1,0000.0,0003.86,0006.19,0003.57
2024-03-30 03:13:00,SystemResetWarning,0825.9,5.00,000.00,020.6,020.0,000.0,029.2,022.5,28.1,0000.0,0003.90,0006.28,0003.60
2024-03-30 03:14:00,SystemResetWarning,0825.9,5.00,000.00,020.6,020.0,000.0,029.2,022.5,28.1,0000.0,0003.93,0006.70,0003.63
2024-03-30 03:15:00,SystemResetWarning,0825.9,5.00,000.00,020.6,020.0,000.0,029.2,022.5,28.0,0000.0,0003.95,0007.44,0003.65
2024-03-30 03:16:00,SystemResetWarning,0825.8,5.00,000.00,020.6,020.0,000.0,029.2,022.5,28.0,0000.0,0003.96,0007.46,0003.65
2024-03-30 03:17:00,SystemResetWarning,0825.9,5.00,000.00,020.6,020.0,000.0,029.2,022.4,28.0,0000.0,0003.98,0007.61,0003.67
2024-03-30 03:18:00,SystemResetWarning,0825.9,5.01,000.00,020.6,020.0,000.0,029.2,022.5,28.0,0000.0,0004.00,0007.70,0003.68
2024-03-30 03:19:00,SystemResetWarning,0825.9,5.00,000.00,020.6,020.0,000.0,029.2,022.5,28.1,0000.0,0004.03,0007.46,0003.70
2024-03-30 03:20:00,SystemResetWarning,0825.9,5.00,000.00,020.6,020.0,000.0,029.2,022.5,28.1,0000.0,0004.05,0007.45,0003.73
2024-03-30 03:21:00,SystemResetWarning,0825.9,5.00,000.00,020.6,020.0,000.0,029.2,022.4,28.2,0000.0,0004.07,0007.48,0003.74
2024-03-30 03:22:00,SystemResetWarning,0825.9,5.01,000.00,020.6,020.0,000.0,029.2,022.5,28.2,0000.0,0004.09,0007.70,0003.76
2024-03-30 03:23:00,SystemResetWarning,0825.8,5.00,000.00,020.6,020.0,000.0,029.2,022.5,28.3,0000.0,0004.09,0007.98,0003.77
2024-03-30 03:24:00,SystemResetWarning,0825.9,5.00,000.00,020.6,020.0,000.0,029.2,022.4,28.4,0000.0,0004.09,0007.94,0003.79
2024-03-30 03:25:00,SystemResetWarning,0825.9,5.00,000.00,020.6,020.0,000.0,029.2,022.4,28.4,0000.0,0004.10,0007.92,0003.81
2024-03-30 03:26:00,SystemResetWarning,0825.9,4.99,000.00,020.6,020.0,000.0,029.2,022.4,28.5,0000.0,0004.14,0007.35,0003.84
2024-03-30 03:27:00,SystemResetWarning,0825.9,4.99,000.00,020.6,020.0,000.0,029.2,022.4,28.4,0000.0,0004.16,0007.31,0003.89
2024-03-30 03:28:00,SystemResetWarning,0825.9,5.00,000.00,020.6,020.0,000.0,029.2,022.4,28.4,0000.0,0004.18,0007.10,0003.93
2024-03-30 03:29:00,SystemResetWarning,0825.9,4.99,000.00,020.6,020.0,000.0,029.2,022.4,28.5,0000.0,0004.23,0007.03,0003.98
2024-03-30 03:30:00,SystemResetWarning,0825.9,5.00,000.00,020.6,020.0,000.0,029.2,022.4,28.5,0000.0,0004.28,0007.14,0004.02
2024-03-30 03:31:00,SystemResetWarning,0825.9,5.01,000.00,020.6,020.0,000.0,029.2,022.4,28.5,0000.0,0004.31,0007.15,0004.06
2024-03-30 03:32:00,SystemResetWarning,0825.9,5.01,000.00,020.6,020.0,000.0,029.2,022.5,28.5,0000.0,0004.34,0007.22,0004.09
2024-03-30 03:33:00,SystemResetWarning,0825.9,5.00,000.00,020.6,020.0,000.0,029.2,022.4,28.7,0000.0,0004.38,0007.64,0004.14
2024-03-30 03:34:00,SystemResetWarning,0825.9,5.00,000.00,020.6,020.0,000.0,029.2,022.4,28.6,0000.0,0004.44,0007.55,0004.19
2024-03-30 03:35:00,SystemResetWarning,0825.9,4.99,000.00,020.6,020.0,000.0,029.2,022.4,28.5,0000.0,0004.46,0007.57,0004.22
2024-03-30 03:36:00,SystemResetWarning,0825.9,5.00,000.00,020.6,020.0,000.0,029.2,022.5,28.4,0000.0,0004.50,0007.62,0004.24
2024-03-30 03:37:00,SystemResetWarning,0825.9,5.00,000.00,020.6,020.0,000.0,029.2,022.5,28.4,0000.0,0004.55,0007.69,0004.29
2024-03-30 03:38:00,SystemResetWarning,0825.9,5.02,000.00,020.6,020.0,000.0,029.2,022.4,28.4,0000.0,0004.59,0007.74,0004.33
2024-03-30 03:39:00,SystemResetWarning,0825.9,5.00,000.00,020.6,020.0,000.0,029.2,022.4,28.4,0000.0,0004.64,0007.83,0004.37
2024-03-30 03:40:00,SystemResetWarning,0825.9,5.00,000.00,020.6,020.0,000.0,029.2,022.5,28.4,0000.0,0004.68,0007.86,0004.41
2024-03-30 03:41:00,SystemResetWarning,0825.9,5.00,000.00,020.6,020.0,000.0,029.2,022.5,28.5,0000.0,0004.67,0007.84,0004.43
2024-03-30 03:42:00,SystemResetWarning,0825.9,4.99,000.00,020.6,020.0,000.0,029.2,022.4,28.5,0000.0,0004.70,0007.88,0004.44
2024-03-30 03:43:00,SystemResetWarning,0825.9,5.00,000.00,020.6,020.0,000.0,029.2,022.4,28.5,0000.0,0004.72,0007.90,0004.47
2024-03-30 03:44:00,SystemResetWarning,0825.9,5.00,000.00,020.6,020.0,000.0,029.2,022.5,28.4,0000.0,0004.74,0007.43,0004.48
2024-03-30 03:45:00,SystemResetWarning,0825.9,5.01,000.00,020.6,020.0,000.0,029.2,022.5,28.4,0000.0,0004.73,0007.21,0004.48
2024-03-30 03:46:00,SystemResetWarning,0825.9,5.00,000.00,020.6,020.0,000.0,029.1,022.4,28.4,0000.0,0004.75,0007.31,0004.48
2024-03-30 03:47:00,SystemResetWarning,0825.9,5.01,000.00,020.6,020.0,000.0,029.2,022.4,28.4,0000.0,0004.75,0007.26,0004.49
2024-03-30 03:48:00,SystemResetWarning,0825.9,5.00,000.00,020.6,020.0,000.0,029.1,022.4,28.5,0000.0,0004.73,0007.45,0004.47
2024-03-30 03:49:00,SystemResetWarning,0825.9,5.00,000.00,020.6,020.0,000.0,029.2,022.4,28.6,0000.0,0004.73,0007.46,0004.46
2024-03-30 03:50:00,SystemResetWarning,0825.9,5.00,000.00,020.6,020.0,000.0,029.1,022.4,28.8,0000.0,0004.75,0007.46,0004.49
2024-03-30 03:51:00,SystemResetWarning,0825.9,4.99,000.00,020.6,020.0,000.0,029.2,022.4,28.5,0000.0,0004.80,0007.52,0004.54
2024-03-30 03:52:00,SystemResetWarning,0825.9,5.00,000.00,020.6,020.0,000.0,029.2,022.4,28.5,0000.0,0004.90,0007.63,0004.62
2024-03-30 03:53:00,SystemResetWarning,0825.9,5.00,000.00,020.6,020.0,000.0,029.2,022.4,28.5,0000.0,0004.95,0007.68,0004.67
2024-03-30 03:54:00,SystemResetWarning,0825.9,5.00,000.00,020.6,020.0,000.0,029.2,022.4,28.5,0000.0,0004.98,0007.70,0004.69
2024-03-30 03:55:00,SystemResetWarning,0825.9,5.01,000.00,020.6,020.0,000.0,029.1,022.4,28.5,0000.0,0005.01,0007.70,0004.73
2024-03-30 03:56:00,SystemResetWarning,0825.9,5.00,000.00,020.6,020.0,000.0,029.2,022.4,28.5,0000.0,0005.08,0007.77,0004.78
2024-03-30 03:57:00,SystemResetWarning,0825.9,5.01,000.00,020.6,020.0,000.0,029.2,022.4,28.4,0000.0,0005.16,0007.83,0004.84
2024-03-30 03:58:00,SystemResetWarning,0825.9,5.01,000.00,020.6,020.0,000.0,029.2,022.4,28.4,0000.0,0005.26,0008.01,0004.92
2024-03-30 03:59:00,SystemResetWarning,0825.9,4.99,000.00,020.6,020.0,000.0,029.2,022.5,28.4,0000.0,0005.35,0008.75,0004.98
